SL-14 DEB, 45307

Orbit data source: Space-Track

SL-14 DEB, 45307 is space debris in LEO originally from a launch on Thu, 15 Aug 1991 UTC launched from the Plesetsk Missile And Space Complex (PKMTR). Debris objects in space refer to the collection of defunct objects orbiting the Earth. Examples of debris include non-operational satellites, rocket bodies, and fragments generated from explosions, collisions, or faulty payload assembly.

Loading next visibility...
Identifier
45307, 1991-056AV
Orbit
LEO
Country
Flag of CISCIS
Related business
Manufacturer
Unknown
Mission
Spacecraft
Bus & Motor
Unknown
Mass
Unknown
Launch date (UTC)
1991-08-15 (35 years ago)
Launch vehicle
Unknown
Launch site
Plesetsk Missile And Space Complex (PKMTR)
Object type
Payload
Rocket body
Debris
Shape & HBR
Unknown shape, 0.1 m
Radar Cross Section
Small (<0.1 m²)

Expand to show TLE details & history
Last TLE update: 18 hours ago

TLE from 18 hours ago
0 SL-14 DEB
1 45307U 91056AV  26127.73421207  .00008246  00000-0  22261-1 0  9998
2 45307  82.5623 232.3308 0224205 231.7744 126.3003 13.05954766293208
Epoch: 2026-05-07T17:37Z
TLE epoch observation values (Epoch: 2026-05-07T17:37:15.922Z)
Latitude
-0.00001°
Longitude
102.43836°
Altitude
1,345.198 km
Speed
7.136 km/s
True Right ascension
15h 29m 19s
True Declination
0° 00' 00"
Sunlit
Object was in full shadow at epoch
Visualization orbit readout
Latitude
Unknown
Longitude
Unknown
Altitude
Unknown
Speed
Unknown
Apparent Right ascension
Unknown
Apparent Declination
Unknown
Sunlit
N/A
Visualization observer readout
Local Sidereal Time
19:45:22
Azimuth
Unknown
Elevation
Unknown
Doppler factor
Unknown
Orbital elements
Apogee altitude
1,406.821 km
Perigee altitude
1,065.39 km
Semi-major axis
7,614.242 km
Eccentricity
0.02242
Inclination
82.5623°
RAAN
232.3308°
Arg. of periapsis
231.7744°
True anomaly
128.33664°
Mean anomaly
126.3003°
Eccentric anomaly
127.32187°
Mean motion
3.26665 °/min
Orbital period
110.2 mins
BSTAR
0.022261
Loading maneuver chart data...
Computing Atmospheric mass density...
Loading historical data...
Loading historical data...
Loading historical data...
Loading historical data...
Loading historical data...
Loading historical data...
Loading historical data...

Documentation

Showing up to 5 results
|